Weather Roundup
Issued by NWS Chicago, IL

Home | Current Version | Previous Version | Graphics & Text | Print | Product List | Glossary On
Versions: 1 2 3 4 5 6 7 8 9 10 11 12 13 14 15 16 17 18 19 20 21 22 23 24 25 26 27 28 29 30 31 32 33 34 35 36 37 38 39 40 41 42 43 44 45 46 47 48 49 50
000
NZUS59 KLOT 210612
HRRLOT

CHICAGO AREA WEATHER ROUNDUP
NATIONAL WEATHER SERVICE CHICAGO/ROMEOVILLE IL
1200 AM CST SAT JAN 21 2017

NOTE: "FAIR" INDICATES FEW OR NO CLOUDS BELOW 12,000 FEET WITH NO
SIGNIFICANT WEATHER AND/OR OBSTRUCTIONS TO VISIBILITY.

* THESE STATIONS ARE NOT UNDER NWS QUALITY CONTROL. THEY ALSO MAY NOT
  REPORT WEATHER SUCH AS PRECIPITATION OR FOG.

ILZ005-006-012>014-019>023-210700-
NORTHEAST ILLINOIS

CITY           SKY/WX    TMP DP  RH WIND       PRES   REMARKS
OHARE          DRZL/FOG  42  41  96 CALM      29.61F VSB 1
6HR MIN TEMP:  41; 6HR MAX TEMP:  43; 6HR PCP:  0.02;

MIDWAY         CLOUDY    47  45  93 S6        29.61F FOG
6HR MIN TEMP:  41; 6HR MAX TEMP:  47; 6HR PCP: TRACE;

AURORA         FOG       44  42  93 SE9       29.59F VSB 3/4
6HR MIN TEMP:  41; 6HR MAX TEMP:  45; 6HR PCP:  0.02;

LANSING*       LGT RAIN  47  47 100 S5        29.63S
JOLIET*        CLOUDY    47  47  99 CALM      29.61F FOG
WAUKEGAN       FOG       38  38 100 CALM      29.61F VSB 1/4
6HR MIN TEMP:  36; 6HR MAX TEMP:  39;

DUPAGE AIRPORT CLOUDY    45  43  93 SE7       29.59F FOG
6HR MIN TEMP:  41; 6HR MAX TEMP:  45; 6HR PCP:  0.02;

WHEELING       LGT RAIN  39  38  96 CALM      29.62F VSB 3/4
6HR MIN TEMP:  38; 6HR MAX TEMP:  39; 6HR PCP:  0.01;

KANKAKEE*      CLOUDY    49  48  98 S7        29.62F
MORRIS*        FOG       44  44  98 SE5       29.59F VSB 1/2
LEWIS AIRPORT* CLOUDY    45  45 100 S9        29.60F FOG
NORTHERLY ISL    N/A     39  38  96 SE3         N/A
$$

WIZ051-052-058>065-066-070>072-210700-
SOUTHEAST WISCONSIN

CITY           SKY/WX    TMP DP  RH WIND       PRES   REMARKS
MILWAUKEE      FOG       38  37  97 E5        29.63F VSB 1/8
6HR MIN TEMP:  37; 6HR MAX TEMP:  38;

KENOSHA*       LGT RAIN  38  37  97 E5        29.62F VSB 1/4
RACINE*        LGT RAIN  38  37  97 CALM      29.64F VSB 1/4
WAUKESHA       FOG       34  34 100 E5        29.63F VSB 1/4 WCI  30
WEST BEND      FOG       34  34 100 E3        29.63F VSB 1/4
$$

INZ001>003-010>013-019-020-210700-
NORTHWEST INDIANA

CITY           SKY/WX    TMP DP  RH WIND       PRES   REMARKS
GARY*          RAIN      49  47  93 S5        29.63S
6HR MIN TEMP:  45; 6HR MAX TEMP:  49;

MICHIGAN CITY* NOT AVBL
RENSSELAER*    NOT AVBL
VALPARAISO     CLOUDY    48  47  96 SE8       29.64F FOG
$$

LMZ740>746-210700-
SOUTHERN LAKE MICHIGAN

STATION/POSITION TIME  SKY/WX   TEMP WIND        PRES    VSBY
                                AIR  DIR/SP/G
                 (UTC)          (F)  (DEG/KT/KT) (MB)    (MI)
HARRISON CRIB    0540            41  160/  6/  6   N/A
BURNHAM HARBOR   0600            39   CALM  /  3   N/A
CALUMET HARBOR   0542                150/  6/ 12 1002.6F
BURNS HARBOR     0540            49  150/ 10/ 17 1004.1F
MICHIGAN CITY    0540            49  130/ 13/ 15   N/A
$$

ABBREVIATIONS USED IN REMARKS
   TC - TEMPERATURE IN CELSIUS
  WCI - WIND CHILL INDEX
   HX - HEAT INDEX
  VSB - VISIBILITY
$$



USA.gov is the U.S. government's official web portal to all federal, state and local government web resources and services.